Weather History for KGWB - November, 2013

Change the Weather History Date:

Wednesday, November 27, 2013

  Actual Average (KFWA) Record (KFWA)
Temperature  
Mean Temperature 28 °F 36 °F  
Max Temperature 32 °F 44 °F 69 °F (1990)
Min Temperature 24 °F 29 °F 1 °F (1930)
Degree Days  
Heating Degree Days 37 29  
Month to date heating degree days 619  
Since 1 July heating degree days 1128  
Cooling Degree Days 0 0  
Month to date cooling degree days 0  
Year to date cooling degree days 809  
Moisture  
Dew Point 17 °F    
Average Humidity 65    
Maximum Humidity 86    
Minimum Humidity 47    
Precipitation  
Precipitation 0.00 in 0.10 in 1.14 in (1983)
Month to date precipitation 2.77  
Year to date precipitation 35.25  
Snow  
Snow 0.00 in 0.20 in 4.00 in (1980)
Month to date snowfall 1.5  
Since 1 July snowfall 1.8  
Since 1 September snowfall 1.8  
Snow Depth -    
Sea Level Pressure  
Sea Level Pressure 30.06 in    
Wind  
Wind Speed 9 mph (WNW)    
Max Wind Speed 16 mph    
Max Gust Speed 23 mph    
Visibility 10 miles    
Events      
T = Trace of Precipitation, MM = Missing Value Source: NWS Daily Summary

Daily Weather History Graph

Daily Weather History Graph

Search for Another Location

Airport or City:

Trip Planner

Search our weather history database for the weather conditions in past years. The results will help you decide how hot, cold, wet, or windy it might be!

Date:

Astronomy

Nov. 27, 2013 Rise Set
Actual Time 7:42 AM EST 5:13 PM EST
Civil Twilight 7:12 AM EST 5:43 PM EST
Nautical Twilight 6:38 AM EST 6:17 PM EST
Astronomical Twilight 6:04 AM EST 6:50 PM EST
Moon 1:40 AM EST (11/27) 1:53 PM EST (11/27)
Length of Visible Light 10h 31m
Length of Day
9h 30m
Waning Crescent, 32% of the Moon is Illuminated
Nov 27
Waning Crescent
Dec 2
New
Dec 9
First Quarter
Dec 17
Full
Dec 25
Last Quarter

Hourly Weather History & Observations

Time (EST) Temp. Windchill Dew Point Humidity Pressure Visibility Wind Dir Wind Speed Gust Speed Precip Events Conditions
12:15 AM 28.4 °F 21.2 °F 19.4 °F 69% 29.99 in 10.0 mi NW 6.9 mph - N/A   Scattered Clouds
12:35 AM 26.6 °F 18.2 °F 19.4 °F 74% 29.98 in 10.0 mi NW 8.1 mph - N/A   Scattered Clouds
12:55 AM 26.6 °F 21.2 °F 19.4 °F 74% 29.97 in 10.0 mi NW 4.6 mph - N/A   Clear
1:15 AM 26.6 °F 19.1 °F 17.6 °F 69% 29.97 in 10.0 mi NW 6.9 mph - N/A   Clear
1:35 AM 26.6 °F 20.0 °F 17.6 °F 69% 29.96 in 10.0 mi NW 5.8 mph - N/A   Clear
1:55 AM 24.8 °F 17.9 °F 19.4 °F 80% 29.96 in 10.0 mi NW 5.8 mph - N/A   Clear
2:15 AM 24.8 °F 16.9 °F 19.4 °F 80% 29.96 in 10.0 mi WNW 6.9 mph - N/A   Clear
2:35 AM 24.8 °F 15.3 °F 17.6 °F 74% 29.97 in 10.0 mi NW 9.2 mph - N/A   Clear
2:55 AM 24.8 °F 15.3 °F 15.8 °F 69% 29.98 in 10.0 mi NW 9.2 mph - N/A   Clear
3:15 AM 24.8 °F 14.6 °F 15.8 °F 69% 29.97 in 10.0 mi NW 10.4 mph - N/A   Scattered Clouds
3:35 AM 26.6 °F 15.7 °F 17.6 °F 69% 29.97 in 10.0 mi NW 12.7 mph 20.7 mph N/A   Mostly Cloudy
3:55 AM 26.6 °F 17.5 °F 17.6 °F 69% 29.97 in 10.0 mi NNW 9.2 mph - N/A   Overcast
4:15 AM 26.6 °F 16.8 °F 17.6 °F 69% 29.98 in 10.0 mi NW 10.4 mph 16.1 mph N/A   Mostly Cloudy
4:35 AM 26.6 °F 15.7 °F 17.6 °F 69% 29.98 in 10.0 mi NW 12.7 mph 17.3 mph N/A   Mostly Cloudy
4:55 AM 26.6 °F 16.2 °F 17.6 °F 69% 29.99 in 10.0 mi NW 11.5 mph 20.7 mph N/A   Overcast
5:15 AM 26.6 °F 14.7 °F 17.6 °F 69% 30.00 in 10.0 mi NNW 15.0 mph 19.6 mph N/A   Overcast
5:35 AM 26.6 °F 16.2 °F 17.6 °F 69% 30.00 in 10.0 mi NNW 11.5 mph 21.9 mph N/A   Overcast
5:55 AM 24.8 °F 14.6 °F 17.6 °F 74% 30.01 in 10.0 mi North 10.4 mph 18.4 mph N/A   Overcast
6:15 AM 24.8 °F 14.6 °F 17.6 °F 74% 30.01 in 10.0 mi NNW 10.4 mph - N/A   Mostly Cloudy
6:35 AM 24.8 °F 15.3 °F 17.6 °F 74% 30.02 in 10.0 mi North 9.2 mph - N/A   Overcast
6:55 AM 24.8 °F 15.3 °F 15.8 °F 69% 30.03 in 10.0 mi NNW 9.2 mph - N/A   Overcast
7:15 AM 24.8 °F 15.3 °F 15.8 °F 69% 30.03 in 10.0 mi NNW 9.2 mph - N/A   Overcast
7:35 AM 24.8 °F 14.0 °F 14.0 °F 64% 30.04 in 10.0 mi NNW 11.5 mph - N/A   Overcast
7:55 AM 24.8 °F 14.6 °F 14.0 °F 64% 30.05 in 10.0 mi NW 10.4 mph - N/A   Overcast
8:15 AM 24.8 °F 14.6 °F 14.0 °F 64% 30.05 in 10.0 mi NW 10.4 mph - N/A   Overcast
8:35 AM 24.8 °F 16.1 °F 14.0 °F 64% 30.05 in 10.0 mi NW 8.1 mph - N/A   Overcast
8:55 AM 24.8 °F 16.1 °F 14.0 °F 64% 30.06 in 10.0 mi NW 8.1 mph - N/A   Overcast
9:15 AM 24.8 °F 15.3 °F 14.0 °F 64% 30.06 in 10.0 mi NW 9.2 mph - N/A   Mostly Cloudy
9:35 AM 26.6 °F 17.5 °F 14.0 °F 59% 30.06 in 10.0 mi NW 9.2 mph - N/A   Mostly Cloudy
9:55 AM 26.6 °F 16.8 °F 12.2 °F 55% 30.06 in 10.0 mi NW 10.4 mph 17.3 mph N/A   Overcast
10:15 AM 26.6 °F 16.2 °F 12.2 °F 55% 30.06 in 10.0 mi WNW 11.5 mph 16.1 mph N/A   Overcast
10:35 AM 28.4 °F 19.7 °F 12.2 °F 51% 30.06 in 10.0 mi NNW 9.2 mph 17.3 mph N/A   Mostly Cloudy
10:55 AM 28.4 °F 17.5 °F 12.2 °F 51% 30.05 in 10.0 mi NW 13.8 mph - N/A   Scattered Clouds
11:15 AM 30.2 °F 19.8 °F 12.2 °F 47% 30.05 in 10.0 mi WNW 13.8 mph 20.7 mph N/A   Clear
11:35 AM 30.2 °F 19.3 °F 12.2 °F 47% 30.04 in 10.0 mi WNW 15.0 mph 19.6 mph N/A   Clear
11:55 AM 30.2 °F 19.3 °F 12.2 °F 47% 30.03 in 10.0 mi WNW 15.0 mph 21.9 mph N/A   Clear
12:15 PM 30.2 °F 19.8 °F 12.2 °F 47% 30.03 in 10.0 mi NW 13.8 mph 18.4 mph N/A   Scattered Clouds
12:35 PM 30.2 °F 20.2 °F 14.0 °F 51% 30.03 in 10.0 mi WNW 12.7 mph 21.9 mph N/A   Mostly Cloudy
12:55 PM 30.2 °F 19.3 °F 14.0 °F 51% 30.02 in 10.0 mi NW 15.0 mph 18.4 mph N/A   Mostly Cloudy
1:15 PM 32.0 °F 23.0 °F 14.0 °F 48% 30.02 in 10.0 mi NW 11.5 mph 23.0 mph N/A   Mostly Cloudy
1:35 PM 32.0 °F 21.2 °F 14.0 °F 48% 30.02 in 10.0 mi West 16.1 mph 21.9 mph N/A   Overcast
1:55 PM 30.2 °F 18.9 °F 14.0 °F 51% 30.03 in 10.0 mi WNW 16.1 mph 20.7 mph N/A   Overcast
2:15 PM 30.2 °F 19.3 °F 15.8 °F 55% 30.03 in 10.0 mi West 15.0 mph 20.7 mph N/A   Mostly Cloudy
2:35 PM 32.0 °F 22.1 °F 17.6 °F 55% 30.03 in 10.0 mi West 13.8 mph 19.6 mph N/A   Mostly Cloudy
2:55 PM 32.0 °F 21.6 °F 17.6 °F 55% 30.03 in 10.0 mi WNW 15.0 mph 19.6 mph N/A   Mostly Cloudy
3:15 PM 32.0 °F 22.1 °F 17.6 °F 55% 30.04 in 10.0 mi West 13.8 mph 19.6 mph N/A   Mostly Cloudy
3:35 PM 30.2 °F 20.8 °F 17.6 °F 60% 30.05 in 10.0 mi WNW 11.5 mph - N/A   Mostly Cloudy
3:55 PM 30.2 °F 20.8 °F 17.6 °F 60% 30.06 in 10.0 mi WNW 11.5 mph - N/A   Mostly Cloudy
4:15 PM 30.2 °F 21.3 °F 17.6 °F 60% 30.06 in 10.0 mi WNW 10.4 mph - N/A   Mostly Cloudy
4:35 PM 30.2 °F 20.8 °F 14.0 °F 51% 30.07 in 10.0 mi NW 11.5 mph - N/A   Overcast
4:55 PM 30.2 °F 21.3 °F 17.6 °F 60% 30.08 in 10.0 mi West 10.4 mph - N/A   Overcast
5:15 PM 30.2 °F 22.6 °F 14.0 °F 51% 30.09 in 10.0 mi NW 8.1 mph - N/A   Overcast
5:35 PM 28.4 °F 19.1 °F 19.4 °F 69% 30.10 in 10.0 mi West 10.4 mph - N/A   Overcast
5:55 PM 28.4 °F 19.7 °F 19.4 °F 69% 30.11 in 10.0 mi West 9.2 mph - N/A   Overcast
6:15 PM 28.4 °F 20.4 °F 19.4 °F 69% 30.12 in 10.0 mi West 8.1 mph - N/A   Overcast
6:35 PM 28.4 °F 19.1 °F 19.4 °F 69% 30.13 in 10.0 mi West 10.4 mph - N/A   Overcast
6:55 PM 28.4 °F 19.7 °F 21.2 °F 74% 30.14 in 10.0 mi West 9.2 mph - N/A   Overcast
7:15 PM 28.4 °F 20.4 °F 21.2 °F 74% 30.14 in 10.0 mi West 8.1 mph - N/A   Overcast
7:35 PM 28.4 °F 22.2 °F 21.2 °F 74% 30.15 in 10.0 mi West 5.8 mph - N/A   Overcast
7:55 PM 28.4 °F 20.4 °F 21.2 °F 74% 30.15 in 10.0 mi West 8.1 mph - N/A   Overcast
8:15 PM 28.4 °F 20.4 °F 21.2 °F 74% 30.16 in 10.0 mi West 8.1 mph - N/A   Mostly Cloudy
8:35 PM 28.4 °F 19.7 °F 23.0 °F 80% 30.16 in 10.0 mi West 9.2 mph - N/A   Overcast
8:55 PM 28.4 °F 19.7 °F 21.2 °F 74% 30.17 in 10.0 mi WNW 9.2 mph - N/A   Overcast
9:15 PM 28.4 °F 20.4 °F 21.2 °F 74% 30.17 in 10.0 mi WNW 8.1 mph - N/A   Overcast
9:35 PM 28.4 °F 21.2 °F 21.2 °F 74% 30.17 in 10.0 mi WNW 6.9 mph - N/A   Overcast
9:55 PM 28.4 °F 21.2 °F 19.4 °F 69% 30.18 in 10.0 mi WNW 6.9 mph - N/A   Overcast
10:15 PM 28.4 °F 23.3 °F 19.4 °F 69% 30.20 in 10.0 mi WNW 4.6 mph - N/A   Overcast
10:35 PM 28.4 °F 24.6 °F 19.4 °F 69% 30.20 in 10.0 mi WNW 3.5 mph - N/A   Overcast
10:55 PM 28.4 °F 23.3 °F 19.4 °F 69% 30.20 in 10.0 mi WNW 4.6 mph - N/A   Overcast
11:15 PM 26.6 °F 21.2 °F 21.2 °F 80% 30.22 in 10.0 mi West 4.6 mph - N/A   Overcast
11:35 PM 26.6 °F 22.6 °F 23.0 °F 86% 30.22 in 10.0 mi West 3.5 mph - N/A   Overcast
11:55 PM 26.6 °F 21.2 °F 21.2 °F 80% 30.22 in 10.0 mi West 4.6 mph - N/A   Overcast